Weather observations for the past three days for
Easton Airport
Metric (Imperial)
Date Time (edt) Wind (kph) Vis. (km) Weather Sky Cond. Temperature (ºC) Relative Humidity Wind Chill (°C) Heat Index (°C) Pressure Precipitation (cm)
Air Dwpt 6 hour altimeter (cm) sea level (mb) 1 hr 3 hr 6 hr
Max. Min.
10 10:45 Vrbl 7 16.09 Fair CLR 25 11 42% 26 76 0.0
10 09:45 Calm 16.09 Fair CLR 23 12 50% 76 0.0
10 08:45 Calm 16.09 Fair CLR 19 14 73% 76.02 0.0
10 07:45 NW 6 16.09 Fair CLR 16 14 88% 75.95 0.0
10 06:45 N 7 16.09 Fair CLR 14 14 100% 75.9 0.0
10 05:55 NW 6 16.09 Fair CLR 13 13 100% 75.87 0.0
10 05:35 NW 6 16.09 Fair CLR 12.1 12.1 100% 75.87 0.0
10 05:15 Calm 16.09 Fair CLR 12.8 12.8 100% 75.84 0.0
10 04:55 W 6 16.09 Fair CLR 12.9 12.3 96% 75.82 0.0
10 04:35 Calm 16.09 Fair CLR 13.4 12.6 95% 75.79 0.0
10 04:15 Calm 16.09 Fair CLR 13.9 13.1 95% 75.79 0.0
10 03:55 Calm 16.09 Fair CLR 14.8 13.1 90% 75.77 0.0
10 03:35 Calm 16.09 Fair CLR 14.3 13 92% 75.79 0.0
10 03:15 Calm 14.48 Fair CLR 14.8 12.8 88% 75.77 0.0
10 02:55 Calm 16.09 Fair CLR 14.2 12.9 92% 75.77 0.0
10 02:35 Calm 14.48 Fair CLR 14.9 13 89% 75.77 0.0
10 02:15 Calm 16.09 Fair CLR 14.5 12.6 88% 75.77 0.0
10 01:55 S 6 16.09 Fair CLR 14.8 12.7 20.5 14.6 87% 75.77 0.0
10 01:35 S 7 16.09 Fair CLR 14.8 12.6 87% 75.79 0.0
10 01:15 S 7 16.09 Fair CLR 15 12.7 86% 75.77 0.0
10 00:55 Calm 16.09 Fair CLR 14.8 12.3 85% 75.79 0.0
10 00:35 Calm 14.48 Fair CLR 15.1 12.3 84% 75.79 0.0
10 00:15 Calm 16.09 A Few Clouds FEW080 15.9 12.3 79% 75.77 0.0
09 23:55 SE 6 16.09 A Few Clouds FEW080 15.7 12 79% 75.79 0.0
09 23:15 Calm 16.09 A Few Clouds FEW090 16.5 11.8 74% 75.77 0.0
09 22:55 Calm 16.09 Partly Cloudy SCT090 16.2 11.9 76% 75.74 0.0
09 22:35 SE 9 16.09 Fair CLR 16.9 12 73% 75.74 0.0
09 22:15 SE 7 16.09 Fair CLR 17.2 12.2 73% 75.74 0.0
09 21:45 SE 6 16.09 Fair CLR 17 12 73% 75.74 0.0
09 20:45 S 11 16.09 Fair CLR 19 12 64% 75.72 0.0
09 19:45 S 15 16.09 Fair CLR 21 12 57% 75.67 0.0
09 18:45 SW 11 16.09 Fair CLR 23 11 47% 75.67 0.0
09 17:45 SW 19 16.09 Fair CLR 23 11 47% 75.67 0.0
09 16:55 S 19 G 30 16.09 Fair CLR 23 11 47% 75.64 0.0
09 15:45 S 19 16.09 Partly Cloudy FEW120 SCT150 22 11 50% 75.69 0.0
09 14:45 SW 22 16.09 A Few Clouds FEW150 23 10 44% 75.74 0.0
09 13:50 SW 24 G 41 16.09 Fair CLR 23 9 41% 75.79 0.0
09 12:50 SW 31 G 54 16.09 Fair CLR 23 8 38% 75.79 0.0
09 11:50 SW 35 G 54 16.09 Fair and Breezy CLR 22 7 38% 75.82 0.0
09 10:50 SW 30 G 50 16.09 Fair CLR 21 8 43% 75.92 0.0
09 09:50 SW 20 G 44 16.09 Fair CLR 20 8 46% 75.92 0.0
09 08:45 S 22 G 39 16.09 A Few Clouds FEW140 18 9 56% 75.92 0.0
09 07:45 S 24 16.09 Partly Cloudy SCT150 16 9 63% 75.95 0.0
09 06:50 S 22 G 31 16.09 Mostly Cloudy BKN140 15 10 72% 75.95 0.0
09 05:55 S 20 16.09 Mostly Cloudy BKN150 15 11 77% 75.92 0.0
09 05:35 S 17 16.09 Overcast OVC150 14.7 10.8 78% 75.92 0.0
09 05:15 S 17 16.09 Overcast FEW130 OVC150 14.9 10.7 76% 75.92 0.0
09 04:55 S 20 16.09 Overcast OVC140 15.1 10.5 74% 75.92 0.0
09 04:35 S 19 16.09 Mostly Cloudy BKN140 15.1 10.5 74% 75.92 0.0
09 03:55 S 20 16.09 Mostly Cloudy BKN130 15.2 10.7 75% 75.95 0.0
09 03:35 S 19 16.09 Mostly Cloudy BKN130 15.3 10.7 74% 75.95 0.0
09 03:15 S 17 16.09 Overcast OVC130 15.1 10.4 74% 75.95 0.0
09 02:55 S 19 16.09 Mostly Cloudy BKN130 BKN150 15.1 10 72% 75.97 0.0
09 02:35 S 19 16.09 Overcast OVC140 14.6 10.2 75% 75.97 0.0
09 02:15 S 15 16.09 Partly Cloudy SCT140 14.3 10.1 76% 75.97 0.0
09 01:55 S 15 16.09 Fair CLR 14 9.9 16.7 13.9 77% 76 0.0
09 01:35 S 17 16.09 Fair CLR 14 9.8 76% 76 0.0
09 01:15 S 17 16.09 Fair CLR 14.1 9.5 74% 76 0.0
09 00:55 S 19 16.09 Fair CLR 14.3 9.4 73% 76 0.0
09 00:35 S 22 16.09 Fair CLR 14.2 9.3 73% 76 0.0
09 00:15 S 19 16.09 Fair CLR 14.3 9.2 72% 76 0.0
08 23:55 S 19 16.09 Fair CLR 14.5 9 70% 76.02 0.0
08 23:35 S 20 16.09 Fair CLR 14.4 8.8 69% 76.02 0.0
08 23:15 S 17 16.09 Fair CLR 14.3 8.5 68% 76.05 0.0
08 22:55 S 17 16.09 Fair CLR 14.5 8 65% 76.02 0.0
08 22:35 S 17 16.09 Fair CLR 14.6 7.6 63% 76.02 0.0
08 22:15 S 19 16.09 Fair CLR 15.1 7.2 59% 76.02 0.0
08 21:45 S 22 16.09 Fair CLR 16 7 55% 76.02 0.0
08 20:45 S 22 16.09 Fair CLR 16 6 52% 75.97 0.0
08 19:45 S 22 16.09 Partly Cloudy SCT110 17 4 42% 75.95 0.0
08 18:45 S 24 16.09 Fair CLR 19 4 37% 75.92 0.0
08 17:45 SW 22 G 31 16.09 Fair CLR 20 4 35% 75.92 0.0
08 16:45 S 24 16.09 Fair CLR 21 3 31% 75.95 0.0
08 15:45 SW 24 G 35 16.09 Fair CLR 21 2 29% 75.97 0.0
08 14:45 S 31 16.09 Fair CLR 20 2 30% 76.02 0.0
08 13:45 SW 17 16.09 Fair CLR 20 1 28% 76.07 0.0
08 12:45 W 17 16.09 Fair CLR 19 0 28% 76.12 0.0
08 11:45 W 15 16.09 Fair CLR 18 -2 26% 76.15 0.0
08 10:45 W 15 16.09 Fair CLR 17 -1 30% 76.17 0.0
08 09:45 W 7 16.09 Fair CLR 15 0 36% 76.2 0.0
08 08:50 NW 6 16.09 Fair CLR 14 2 44% 76.23 0.0
08 07:45 Calm 16.09 Fair CLR 13 2 47% 76.17 0.0
08 06:45 Calm 16.09 Fair CLR 8 3 71% 76.12 0.0
08 05:55 N 9 16.09 Fair CLR 10.5 1.6 54% 76.07 0.0
08 05:45 N 7 16.09 Fair CLR 10 2 58% 9 76.07 0.0
08 05:35 NW 9 16.09 Fair CLR 10.5 1.8 55% 76.07 0.0
08 05:15 N 9 16.09 Fair CLR 10.9 2.5 56% 76.05 0.0
08 04:55 N 7 16.09 Fair CLR 11.3 3.2 58% 76.02 0.0
08 04:35 NW 13 16.09 Fair CLR 11.5 3.9 60% 76 0.0
08 04:15 N 7 16.09 Fair CLR 10.7 6.3 74% 76 0.0
08 03:35 NW 13 16.09 Fair CLR 10.7 8.6 87% 75.95 0.0
08 03:15 Vrbl 6 16.09 Fair CLR 11.1 9 87% 75.92 0.0
08 02:55 W 9 16.09 Fair CLR 11.2 9.4 89% 75.87 0.0
08 02:35 W 11 16.09 Fair CLR 11.4 9.4 88% 75.87 0.0
08 02:15 W 9 16.09 Fair CLR 11.4 9.2 86% 75.87 0.0
08 01:55 SW 6 16.09 Fair CLR 11 9 11.9 9.6 88% 75.87 0.0
08 01:35 SW 6 16.09 A Few Clouds FEW090 11 9 88% 75.87 0.0
08 01:15 W 11 16.09 Partly Cloudy SCT090 11.8 9.1 84% 75.9 0.0
08 00:55 W 7 16.09 Partly Cloudy SCT090 10.4 8.5 88% 75.87 0.0
08 00:35 W 6 16.09 A Few Clouds FEW055 10.3 8.1 86% 75.87 0.0
08 00:15 S 7 16.09 A Few Clouds FEW060 9.6 7.3 86% 9 75.87 0.0
07 23:55 SW 6 16.09 Fair CLR 10.3 7 80% 75.84 0.0
07 23:35 Calm 16.09 Fair CLR 10.3 7 80% 75.84 0.0
07 22:55 W 7 16.09 Fair CLR 9.9 6.7 81% 9 75.84 0.0
07 22:35 W 7 16.09 Fair CLR 10.1 6.6 79% 75.84 0.0
07 22:15 W 9 16.09 Fair CLR 10.1 6.5 79% 75.84 0.0
07 21:45 Calm 16.09 Fair CLR 10 6 76% 75.84 0.0
07 20:45 W 6 16.09 Fair CLR 11 6 72% 75.79 0.0
07 19:50 SW 13 16.09 Fair CLR 12 5 63% 75.74 0.0
07 18:50 SW 15 16.09 Fair CLR 14 5 55% 75.69 0.0
07 17:45 W 13 16.09 A Few Clouds FEW120 15 5 51% 75.72 0.0
07 16:50 SW 9 16.09 Mostly Cloudy BKN080 14 5 55% 75.69 0.0
07 15:45 Calm 16.09 Mostly Cloudy BKN080 15 4 48% 75.72 0.0
07 14:50 NW 6 16.09 Mostly Cloudy BKN080 14 4 51% 75.77 0.0
07 13:45 NW 9 16.09 Mostly Cloudy BKN075 14 6 59% 75.84 0.0
07 12:45 NW 7 16.09 Mostly Cloudy BKN060 14 5 55% 75.87 0.0
07 11:45 NE 9 16.09 Overcast OVC055 14 5 55% 75.9 0.0
Date Time (edt) Wind (kph) Vis. (km) Weather Sky Cond. Air Dwpt Max. Min. Relative Humidity Wind Chill (°C) Heat Index (°C) altimeter (cm) sea level (mb) 1 hr 3 hr 6 hr
6 hour
Temperature (ºC) Pressure Precipitation (cm)